Time,TemperatureF,DewpointF,PressureIn,WindDirection,WindDirectionDegrees,WindSpeedMPH,WindSpeedGustMPH,Humidity,HourlyPrecipIn,Conditions,Clouds,dailyrainin,SoftwareType,DateUTC
2013-04-16 00:00:00,62.2,51.1,29.95,South,177,2.2,2.3,67,0.00,CLR,,0.00,WeatherDisplay:10.37,2013-04-16 04:00:00,
2013-04-16 00:05:00,62.2,51.1,29.95,South,177,4.8,4.8,67,0.00,CLR,,0.00,WeatherDisplay:10.37,2013-04-16 04:05:00,
2013-04-16 00:10:00,62.1,51.0,29.95,South,177,0.0,4.6,67,0.00,CLR,,0.00,WeatherDisplay:10.37,2013-04-16 04:10:00,
2013-04-16 00:15:00,62.1,51.4,29.95,SSE,155,4.5,4.6,68,0.00,CLR,,0.00,WeatherDisplay:10.37,2013-04-16 04:15:00,
2013-04-16 00:20:00,61.9,51.2,29.95,SSW,199,7.5,10.5,68,0.00,CLR,,0.00,WeatherDisplay:10.37,2013-04-16 04:20:00,
2013-04-16 00:25:00,61.9,50.8,29.95,SSW,199,5.7,6.3,67,0.00,CLR,,0.00,WeatherDisplay:10.37,2013-04-16 04:25:00,
2013-04-16 00:30:00,61.9,51.2,29.95,South,177,0.0,4.6,68,0.00,CLR,,0.00,WeatherDisplay:10.37,2013-04-16 04:30:00,
2013-04-16 00:35:00,61.7,51.0,29.95,SSW,199,2.5,3.5,68,0.00,CLR,,0.00,WeatherDisplay:10.37,2013-04-16 04:35:00,
2013-04-16 00:40:00,61.5,50.9,29.95,South,177,4.5,4.6,68,0.00,CLR,,0.00,WeatherDisplay:10.37,2013-04-16 04:40:00,
2013-04-16 00:45:00,61.5,50.9,29.95,South,177,2.7,3.5,68,0.00,CLR,,0.00,WeatherDisplay:10.37,2013-04-16 04:45:00,
2013-04-16 00:50:00,61.3,51.1,29.95,SSE,155,2.5,2.5,69,0.00,CLR,,0.00,WeatherDisplay:10.37,2013-04-16 04:50:00,
2013-04-16 00:55:00,61.2,50.9,29.95,SSE,155,0.0,5.8,69,0.00,CLR,,0.00,WeatherDisplay:10.37,2013-04-16 04:55:00,
2013-04-16 01:00:00,61.0,50.7,29.95,SSE,155,0.0,0.0,69,0.00,CLR,,0.00,WeatherDisplay:10.37,2013-04-16 05:00:00,
2013-04-16 01:05:00,61.0,50.7,29.96,South,177,4.0,5.8,69,0.00,CLR,,0.00,WeatherDisplay:10.37,2013-04-16 05:05:00,
2013-04-16 01:10:00,60.6,50.4,29.95,South,177,5.8,5.8,69,0.00,CLR,,0.00,WeatherDisplay:10.37,2013-04-16 05:10:00,
2013-04-16 01:15:00,60.6,50.8,29.96,NNW,335,0.0,0.0,70,0.00,CLR,,0.00,WeatherDisplay:10.37,2013-04-16 05:15:00,
2013-04-16 01:20:00,60.6,50.8,29.95,SE,132,0.1,1.3,70,0.00,CLR,,0.00,WeatherDisplay:10.37,2013-04-16 05:20:00,
2013-04-16 01:25:00,60.4,50.6,29.95,SSE,155,0.1,1.1,70,0.00,CLR,,0.00,WeatherDisplay:10.37,2013-04-16 05:25:00,
2013-04-16 01:30:00,60.4,50.6,29.95,SW,222,0.7,1.1,70,0.00,CLR,,0.00,WeatherDisplay:10.37,2013-04-16 05:30:00,
2013-04-16 01:35:00,60.4,50.6,29.95,SSE,155,2.0,3.5,70,0.00,CLR,,0.00,WeatherDisplay:10.37,2013-04-16 05:35:00,
2013-04-16 01:40:00,60.4,50.6,29.95,South,177,4.6,6.9,70,0.00,CLR,,0.00,WeatherDisplay:10.37,2013-04-16 05:40:00,
2013-04-16 01:45:00,60.4,51.0,29.95,SW,222,4.7,4.7,71,0.00,CLR,,0.00,WeatherDisplay:10.37,2013-04-16 05:45:00,
2013-04-16 01:50:00,60.4,51.0,29.95,South,177,7.2,8.1,71,0.00,CLR,,0.00,WeatherDisplay:10.37,2013-04-16 05:50:00,
2013-04-16 01:55:00,60.4,51.0,29.95,SE,132,4.2,4.6,71,0.00,CLR,,0.00,WeatherDisplay:10.37,2013-04-16 05:55:00,
2013-04-16 02:14:00,60.3,51.2,29.95,West,267,2.7,11.5,72,0.00,CLR,,0.00,WeatherDisplay:10.37,2013-04-16 06:14:00,
2013-04-16 02:19:00,60.1,51.0,29.95,SSW,199,2.4,3.6,72,0.00,CLR,,0.00,WeatherDisplay:10.37,2013-04-16 06:19:00,
2013-04-16 02:24:00,60.3,51.6,29.95,SW,222,3.6,3.6,73,0.00,CLR,,0.00,WeatherDisplay:10.37,2013-04-16 06:24:00,
2013-04-16 02:29:00,60.3,51.6,29.95,SSW,199,9.6,9.6,73,0.00,CLR,,0.00,WeatherDisplay:10.37,2013-04-16 06:29:00,
2013-04-16 02:34:00,60.3,51.6,29.95,WSW,245,0.0,0.0,73,0.00,CLR,,0.00,WeatherDisplay:10.37,2013-04-16 06:34:00,
2013-04-16 02:39:00,60.3,51.6,29.95,SSW,199,6.1,8.3,73,0.00,CLR,,0.00,WeatherDisplay:10.37,2013-04-16 06:39:00,
2013-04-16 02:44:00,60.4,51.7,29.95,South,177,7.1,7.4,73,0.00,CLR,,0.00,WeatherDisplay:10.37,2013-04-16 06:44:00,
2013-04-16 02:49:00,60.4,52.1,29.95,South,177,2.9,3.5,74,0.00,CLR,,0.00,WeatherDisplay:10.37,2013-04-16 06:49:00,
2013-04-16 02:54:00,60.4,52.1,29.96,South,177,5.0,6.3,74,0.00,CLR,,0.00,WeatherDisplay:10.37,2013-04-16 06:54:00,
2013-04-16 02:59:00,60.4,52.1,29.96,West,267,4.2,4.6,74,0.00,CLR,,0.00,WeatherDisplay:10.37,2013-04-16 06:59:00,
2013-04-16 03:04:00,60.4,52.1,29.96,SSE,155,5.1,8.7,74,0.00,CLR,,0.00,WeatherDisplay:10.37,2013-04-16 07:04:00,
2013-04-16 03:09:00,60.4,52.5,29.96,SSE,155,3.0,5.1,75,0.00,CLR,,0.00,WeatherDisplay:10.37,2013-04-16 07:09:00,
2013-04-16 03:14:00,60.4,52.1,29.96,South,177,3.1,3.5,74,0.00,CLR,,0.00,WeatherDisplay:10.37,2013-04-16 07:14:00,
2013-04-16 03:19:00,60.4,52.1,29.96,SSW,199,4.5,4.6,74,0.00,CLR,,0.00,WeatherDisplay:10.37,2013-04-16 07:19:00,
2013-04-16 03:24:00,60.4,52.1,29.96,West,267,5.9,6.9,74,0.00,CLR,,0.00,WeatherDisplay:10.37,2013-04-16 07:24:00,
2013-04-16 03:29:00,60.4,52.1,29.97,SSW,199,3.4,3.5,74,0.00,CLR,,0.00,WeatherDisplay:10.37,2013-04-16 07:29:00,
2013-04-16 03:34:00,60.4,52.5,29.97,SW,222,3.4,3.5,75,0.00,CLR,,0.00,WeatherDisplay:10.37,2013-04-16 07:34:00,
2013-04-16 03:39:00,60.4,52.5,29.98,SSW,199,5.5,6.0,75,0.00,CLR,,0.00,WeatherDisplay:10.37,2013-04-16 07:39:00,
2013-04-16 03:44:00,60.4,52.5,29.98,SW,222,1.8,2.3,75,0.00,CLR,,0.00,WeatherDisplay:10.37,2013-04-16 07:44:00,
2013-04-16 03:49:00,60.4,52.5,29.98,SSW,199,2.7,3.8,75,0.00,CLR,,0.00,WeatherDisplay:10.37,2013-04-16 07:49:00,
2013-04-16 03:54:00,60.4,52.8,29.98,South,177,3.9,3.9,76,0.00,CLR,,0.00,WeatherDisplay:10.37,2013-04-16 07:54:00,
2013-04-16 03:59:00,60.4,52.8,29.99,South,177,4.0,4.0,76,0.00,CLR,,0.00,WeatherDisplay:10.37,2013-04-16 07:59:00,
2013-04-16 04:04:00,60.4,52.8,29.99,SSW,199,2.8,8.9,76,0.00,CLR,,0.00,WeatherDisplay:10.37,2013-04-16 08:04:00,
2013-04-16 04:09:00,60.4,52.8,29.99,SSW,199,4.5,5.8,76,0.00,CLR,,0.00,WeatherDisplay:10.37,2013-04-16 08:09:00,
2013-04-16 04:14:00,60.4,52.8,29.99,ESE,109,3.6,3.6,76,0.00,CLR,,0.00,WeatherDisplay:10.37,2013-04-16 08:14:00,
2013-04-16 04:19:00,60.4,52.8,29.99,South,177,10.3,10.4,76,0.00,CLR,,0.00,WeatherDisplay:10.37,2013-04-16 08:19:00,
2013-04-16 04:24:00,60.4,53.2,30.00,SSE,155,5.3,6.9,77,0.00,CLR,,0.00,WeatherDisplay:10.37,2013-04-16 08:24:00,
2013-04-16 04:29:00,60.6,53.4,29.99,SSW,199,4.7,4.7,77,0.00,CLR,,0.00,WeatherDisplay:10.37,2013-04-16 08:29:00,
2013-04-16 04:34:00,60.6,53.7,30.00,SW,222,3.4,3.8,78,0.00,CLR,,0.00,WeatherDisplay:10.37,2013-04-16 08:34:00,
2013-04-16 04:39:00,60.6,53.4,30.00,SW,222,3.8,3.8,77,0.00,CLR,,0.00,WeatherDisplay:10.37,2013-04-16 08:39:00,
2013-04-16 04:44:00,60.6,53.4,30.00,SSW,199,2.9,2.9,77,0.00,CLR,,0.00,WeatherDisplay:10.37,2013-04-16 08:44:00,
2013-04-16 04:49:00,60.4,53.2,30.01,SSW,199,0.0,0.0,77,0.00,CLR,,0.00,WeatherDisplay:10.37,2013-04-16 08:49:00,
2013-04-16 04:54:00,60.4,53.5,30.01,SW,222,2.5,3.5,78,0.00,CLR,,0.00,WeatherDisplay:10.37,2013-04-16 08:54:00,
2013-04-16 04:59:00,60.4,53.5,30.01,South,177,4.7,4.7,78,0.00,CLR,,0.00,WeatherDisplay:10.37,2013-04-16 08:59:00,
2013-04-16 05:04:00,60.3,53.0,30.01,WSW,245,4.7,4.7,77,0.00,CLR,,0.00,WeatherDisplay:10.37,2013-04-16 09:04:00,
2013-04-16 05:09:00,60.1,52.8,30.01,SW,222,4.7,8.1,77,0.00,CLR,,0.00,WeatherDisplay:10.37,2013-04-16 09:09:00,
2013-04-16 05:14:00,60.1,53.2,30.02,SSW,199,0.9,1.1,78,0.00,CLR,,0.00,WeatherDisplay:10.37,2013-04-16 09:14:00,
2013-04-16 05:19:00,60.1,53.2,30.02,South,177,5.4,5.8,78,0.00,CLR,,0.00,WeatherDisplay:10.37,2013-04-16 09:19:00,
2013-04-16 05:24:00,59.9,53.0,30.02,South,177,3.2,3.5,78,0.00,CLR,,0.00,WeatherDisplay:10.37,2013-04-16 09:24:00,
2013-04-16 05:29:00,59.9,53.0,30.02,SSE,155,1.3,3.5,78,0.00,CLR,,0.00,WeatherDisplay:10.37,2013-04-16 09:29:00,
2013-04-16 05:34:00,59.7,52.8,30.02,South,177,0.0,0.0,78,0.00,CLR,,0.00,WeatherDisplay:10.37,2013-04-16 09:34:00,
2013-04-16 05:39:00,59.7,52.8,30.02,SW,222,2.6,3.6,78,0.00,CLR,,0.00,WeatherDisplay:10.37,2013-04-16 09:39:00,
2013-04-16 05:44:00,59.5,52.7,30.02,South,177,2.2,2.3,78,0.00,CLR,,0.00,WeatherDisplay:10.37,2013-04-16 09:44:00,
2013-04-16 05:49:00,59.4,52.8,30.03,SSW,199,3.9,4.5,79,0.00,CLR,,0.00,WeatherDisplay:10.37,2013-04-16 09:49:00,
2013-04-16 05:54:00,59.4,52.8,30.03,SSW,199,3.9,4.6,79,0.00,CLR,,0.00,WeatherDisplay:10.37,2013-04-16 09:54:00,
2013-04-16 05:59:00,59.4,52.8,30.03,ESE,109,1.3,1.3,79,0.00,CLR,,0.00,WeatherDisplay:10.37,2013-04-16 09:59:00,
2013-04-16 06:04:00,59.5,53.4,30.03,SSW,199,1.6,3.8,80,0.00,CLR,,0.00,WeatherDisplay:10.37,2013-04-16 10:04:00,
2013-04-16 06:09:00,59.5,53.4,30.04,SW,222,4.0,4.0,80,0.00,CLR,,0.00,WeatherDisplay:10.37,2013-04-16 10:09:00,
2013-04-16 06:14:00,59.5,53.4,30.04,SSW,199,3.1,3.5,80,0.00,CLR,,0.00,WeatherDisplay:10.37,2013-04-16 10:14:00,
2013-04-16 06:19:00,59.5,53.0,30.04,WNW,289,6.9,6.9,79,0.00,CLR,,0.00,WeatherDisplay:10.37,2013-04-16 10:19:00,
2013-04-16 06:24:00,59.5,53.0,30.04,WSW,245,2.8,3.5,79,0.00,CLR,,0.00,WeatherDisplay:10.37,2013-04-16 10:24:00,
2013-04-16 06:29:00,59.7,53.5,30.04,South,177,4.0,4.0,80,0.00,CLR,,0.00,WeatherDisplay:10.37,2013-04-16 10:29:00,
2013-04-16 06:34:00,59.7,53.5,30.04,SW,222,0.0,0.0,80,0.00,CLR,,0.00,WeatherDisplay:10.37,2013-04-16 10:34:00,
2013-04-16 06:39:00,59.7,53.2,30.04,SSW,199,2.5,6.9,79,0.00,CLR,,0.00,WeatherDisplay:10.37,2013-04-16 10:39:00,
2013-04-16 06:44:00,59.9,53.7,30.04,South,177,5.6,5.8,80,0.00,CLR,,0.00,WeatherDisplay:10.37,2013-04-16 10:44:00,
2013-04-16 06:49:00,60.1,53.9,30.05,South,177,7.8,8.1,80,0.00,CLR,,0.00,WeatherDisplay:10.37,2013-04-16 10:49:00,
2013-04-16 06:54:00,60.1,53.9,30.05,SSE,155,3.3,3.6,80,0.00,CLR,,0.00,WeatherDisplay:10.37,2013-04-16 10:54:00,
2013-04-16 06:59:00,59.9,53.4,30.05,SSW,199,0.0,0.0,79,0.00,CLR,,0.00,WeatherDisplay:10.37,2013-04-16 10:59:00,
2013-04-16 07:04:00,59.9,53.7,30.05,South,177,2.0,3.1,80,0.00,CLR,,0.00,WeatherDisplay:10.37,2013-04-16 11:04:00,
2013-04-16 07:09:00,59.9,53.7,30.06,SSW,199,3.1,4.6,80,0.00,BKN,,0.00,WeatherDisplay:10.37,2013-04-16 11:09:00,
2013-04-16 07:14:00,59.9,53.7,30.07,South,177,0.9,1.1,80,0.00,BKN,,0.00,WeatherDisplay:10.37,2013-04-16 11:14:00,
2013-04-16 07:19:00,59.9,53.4,30.07,SW,222,2.3,3.8,79,0.00,BKN,,0.00,WeatherDisplay:10.37,2013-04-16 11:19:00,
2013-04-16 07:24:00,59.9,53.4,30.07,WSW,245,4.1,5.8,79,0.00,BKN,,0.00,WeatherDisplay:10.37,2013-04-16 11:24:00,
2013-04-16 07:29:00,59.9,53.4,30.08,South,177,5.8,5.8,79,0.00,BKN,,0.00,WeatherDisplay:10.37,2013-04-16 11:29:00,
2013-04-16 07:34:00,60.1,53.5,30.08,SW,222,2.9,3.5,79,0.00,BKN,,0.00,WeatherDisplay:10.37,2013-04-16 11:34:00,
2013-04-16 07:39:00,60.3,53.7,30.08,South,177,3.2,3.5,79,0.00,BKN,,0.00,WeatherDisplay:10.37,2013-04-16 11:39:00,
2013-04-16 07:44:00,60.4,53.9,30.09,SSW,199,8.0,8.1,79,0.00,BKN,,0.00,WeatherDisplay:10.37,2013-04-16 11:44:00,
2013-04-16 07:49:00,60.6,53.7,30.09,SW,222,2.7,2.7,78,0.00,BKN,,0.00,WeatherDisplay:10.37,2013-04-16 11:49:00,
2013-04-16 07:54:00,60.6,54.1,30.08,SW,222,1.3,2.3,79,0.00,BKN,,0.00,WeatherDisplay:10.37,2013-04-16 11:54:00,
2013-04-16 07:59:00,61.0,54.4,30.09,SSW,199,5.1,5.1,79,0.00,BKN,,0.00,WeatherDisplay:10.37,2013-04-16 11:59:00,
2013-04-16 08:04:00,61.2,54.6,30.09,SSW,199,0.0,0.0,79,0.00,BKN,,0.00,WeatherDisplay:10.37,2013-04-16 12:04:00,
2013-04-16 08:09:00,61.3,54.8,30.09,SSE,155,5.6,6.9,79,0.00,SCT,,0.00,WeatherDisplay:10.37,2013-04-16 12:09:00,
2013-04-16 08:14:00,61.7,55.1,30.09,SW,222,3.1,3.5,79,0.00,SCT,,0.00,WeatherDisplay:10.37,2013-04-16 12:14:00,
2013-04-16 08:19:00,62.1,55.1,30.10,SSW,199,0.5,9.2,78,0.00,SCT,,0.00,WeatherDisplay:10.37,2013-04-16 12:19:00,
2013-04-16 08:24:00,62.8,55.8,30.10,SW,222,4.4,4.7,78,0.00,SCT,,0.00,WeatherDisplay:10.37,2013-04-16 12:24:00,
2013-04-16 08:29:00,63.1,56.2,30.10,SSW,199,2.2,2.3,78,0.00,SCT,,0.00,WeatherDisplay:10.37,2013-04-16 12:29:00,
2013-04-16 08:34:00,63.5,56.2,30.10,NW,312,2.2,2.3,77,0.00,SCT,,0.00,WeatherDisplay:10.37,2013-04-16 12:34:00,
2013-04-16 08:39:00,63.7,56.3,30.11,SSW,199,10.2,10.5,77,0.00,SCT,,0.00,WeatherDisplay:10.37,2013-04-16 12:39:00,
2013-04-16 08:45:00,64.0,56.3,30.11,South,177,9.4,9.4,76,0.00,SCT,,0.00,WeatherDisplay:10.37,2013-04-16 12:45:00,
2013-04-16 08:50:00,64.2,56.9,30.11,SSW,199,14.3,15.0,77,0.00,SCT,,0.00,WeatherDisplay:10.37,2013-04-16 12:50:00,
2013-04-16 08:55:00,64.2,56.9,30.11,SW,222,8.5,8.5,77,0.00,SCT,,0.00,WeatherDisplay:10.37,2013-04-16 12:55:00,
2013-04-16 09:00:00,64.2,56.9,30.11,SW,222,8.5,8.5,77,0.00,SCT,,0.00,WeatherDisplay:10.37,2013-04-16 13:00:00,
2013-04-16 09:05:00,66.4,58.2,30.11,South,177,7.3,8.1,75,0.00,SCT,,0.00,WeatherDisplay:10.37,2013-04-16 13:05:00,
2013-04-16 09:10:00,66.7,58.6,30.11,SSE,155,4.9,10.4,75,0.00,BKN,,0.00,WeatherDisplay:10.37,2013-04-16 13:10:00,
2013-04-16 09:15:00,67.5,58.9,30.11,South,177,8.5,8.5,74,0.00,BKN,,0.00,WeatherDisplay:10.37,2013-04-16 13:15:00,
2013-04-16 09:20:00,68.5,59.5,30.11,WSW,245,4.0,4.9,73,0.00,BKN,,0.00,WeatherDisplay:10.37,2013-04-16 13:20:00,
2013-04-16 09:25:00,69.4,60.0,30.11,SW,222,20.1,20.7,72,0.00,BKN,,0.00,WeatherDisplay:10.37,2013-04-16 13:25:00,
2013-04-16 09:30:00,69.8,60.0,30.11,South,177,10.2,11.5,71,0.00,BKN,,0.00,WeatherDisplay:10.37,2013-04-16 13:30:00,
2013-04-16 09:35:00,70.7,60.4,30.11,West,267,8.0,9.4,70,0.00,BKN,,0.00,WeatherDisplay:10.37,2013-04-16 13:35:00,
2013-04-16 09:40:00,71.2,61.0,30.11,SSW,199,15.9,16.1,70,0.00,BKN,,0.00,WeatherDisplay:10.37,2013-04-16 13:40:00,
2013-04-16 09:45:00,71.8,60.6,30.11,SSW,211,10.0,0.0,68,0.00,BKN,,0.00,WeatherDisplay:10.37,2013-04-16 13:45:00,
2013-04-16 09:50:00,72.1,61.0,30.11,SSW,199,7.2,7.2,68,0.00,BKN,,0.00,WeatherDisplay:10.37,2013-04-16 13:50:00,
2013-04-16 09:55:00,72.5,60.9,30.11,South,181,9.0,0.0,67,0.00,BKN,,0.00,WeatherDisplay:10.37,2013-04-16 13:55:00,
2013-04-16 10:00:00,72.7,61.1,30.11,South,177,12.5,12.7,67,0.00,BKN,,0.00,WeatherDisplay:10.37,2013-04-16 14:00:00,
2013-04-16 10:05:00,72.5,60.9,30.11,South,189,9.0,0.0,67,0.00,BKN,,0.00,WeatherDisplay:10.37,2013-04-16 14:05:00,
2013-04-16 10:10:00,72.7,61.1,30.11,West,267,8.0,8.1,67,0.00,BKN,,0.00,WeatherDisplay:10.37,2013-04-16 14:10:00,
2013-04-16 10:15:00,72.7,61.1,30.11,SW,224,9.0,0.0,67,0.00,BKN,,0.00,WeatherDisplay:10.37,2013-04-16 14:15:00,
2013-04-16 10:20:00,73.2,61.6,30.11,South,177,4.2,4.2,67,0.00,BKN,,0.00,WeatherDisplay:10.37,2013-04-16 14:20:00,
2013-04-16 10:25:00,73.8,62.2,30.11,SSW,208,10.0,0.0,67,0.00,BKN,,0.00,WeatherDisplay:10.37,2013-04-16 14:25:00,
2013-04-16 10:30:00,74.5,62.4,30.11,SW,222,19.7,19.7,66,0.00,BKN,,0.00,WeatherDisplay:10.37,2013-04-16 14:30:00,
2013-04-16 10:35:00,74.9,62.7,30.11,SSW,211,8.0,0.0,66,0.00,BKN,,0.00,WeatherDisplay:10.37,2013-04-16 14:35:00,
2013-04-16 10:40:00,75.7,63.6,30.12,South,177,14.5,15.0,66,0.00,BKN,,0.00,WeatherDisplay:10.37,2013-04-16 14:40:00,
2013-04-16 10:45:00,75.9,62.9,30.11,South,190,14.0,0.0,64,0.00,BKN,,0.00,WeatherDisplay:10.37,2013-04-16 14:45:00,
2013-04-16 10:50:00,75.9,62.4,30.12,West,267,6.5,9.4,63,0.00,BKN,,0.00,WeatherDisplay:10.37,2013-04-16 14:50:00,
2013-04-16 10:55:00,75.6,62.1,30.12,West,266,9.0,0.0,63,0.00,BKN,,0.00,WeatherDisplay:10.37,2013-04-16 14:55:00,
2013-04-16 11:00:00,75.4,62.4,30.12,WNW,289,7.8,8.1,64,0.00,BKN,,0.00,WeatherDisplay:10.37,2013-04-16 15:00:00,
2013-04-16 11:05:00,75.0,62.0,30.12,SW,215,6.0,0.0,64,0.00,BKN,,0.00,WeatherDisplay:10.37,2013-04-16 15:05:00,
2013-04-16 11:10:00,75.0,62.0,30.12,South,177,6.7,9.2,64,0.00,BKN,,0.00,WeatherDisplay:10.37,2013-04-16 15:10:00,
2013-04-16 11:15:00,74.8,62.3,30.12,South,171,14.0,0.0,65,0.00,BKN,,0.00,WeatherDisplay:10.37,2013-04-16 15:15:00,
2013-04-16 11:20:00,74.5,61.9,30.12,South,177,6.0,6.3,65,0.00,BKN,,0.00,WeatherDisplay:10.37,2013-04-16 15:20:00,
2013-04-16 11:25:00,74.3,61.8,30.12,SW,225,7.0,0.0,65,0.00,BKN,,0.00,WeatherDisplay:10.37,2013-04-16 15:25:00,
2013-04-16 11:30:00,74.3,61.8,30.12,WSW,245,2.9,20.7,65,0.00,BKN,,0.00,WeatherDisplay:10.37,2013-04-16 15:30:00,
2013-04-16 11:35:00,73.9,61.9,30.12,SW,233,5.0,0.0,66,0.00,BKN,,0.00,WeatherDisplay:10.37,2013-04-16 15:35:00,
2013-04-16 11:40:00,73.9,61.9,30.12,WSW,245,10.3,10.4,66,0.00,BKN,,0.00,WeatherDisplay:10.37,2013-04-16 15:40:00,
2013-04-16 11:45:00,73.9,61.9,30.12,SSW,213,13.0,0.0,66,0.00,BKN,,0.00,WeatherDisplay:10.37,2013-04-16 15:45:00,
2013-04-16 11:50:00,73.9,62.3,30.12,SW,222,11.4,11.5,67,0.00,BKN,,0.00,WeatherDisplay:10.37,2013-04-16 15:50:00,
2013-04-16 11:55:00,73.9,62.3,30.12,SW,226,5.0,0.0,67,0.00,BKN,,0.00,WeatherDisplay:10.37,2013-04-16 15:55:00,
2013-04-16 12:00:00,73.9,62.3,30.12,WSW,245,10.7,10.7,67,0.00,BKN,,0.00,WeatherDisplay:10.37,2013-04-16 16:00:00,
2013-04-16 12:05:00,73.8,62.1,30.12,SW,231,5.0,0.0,67,0.00,BKN,,0.00,WeatherDisplay:10.37,2013-04-16 16:05:00,
2013-04-16 12:10:00,73.6,61.9,30.12,West,267,6.1,6.1,67,0.00,OVC,,0.00,WeatherDisplay:10.37,2013-04-16 16:10:00,
2013-04-16 12:15:00,73.9,62.3,30.12,SSW,199,11.4,11.5,67,0.00,OVC,,0.00,WeatherDisplay:10.37,2013-04-16 16:15:00,
2013-04-16 12:20:00,74.5,62.8,30.12,WSW,245,4.2,6.9,67,0.00,OVC,,0.00,WeatherDisplay:10.37,2013-04-16 16:20:00,
2013-04-16 12:25:00,74.7,62.5,30.12,SSW,204,8.0,0.0,66,0.00,OVC,,0.00,WeatherDisplay:10.37,2013-04-16 16:25:00,
2013-04-16 12:30:00,74.8,62.7,30.12,WSW,245,8.7,11.8,66,0.00,OVC,,0.00,WeatherDisplay:10.37,2013-04-16 16:30:00,
2013-04-16 12:35:00,75.9,63.7,30.12,West,267,13.4,18.4,66,0.00,OVC,,0.00,WeatherDisplay:10.37,2013-04-16 16:35:00,
2013-04-16 12:40:00,76.3,63.6,30.11,SSE,155,17.8,17.8,65,0.00,OVC,,0.00,WeatherDisplay:10.37,2013-04-16 16:40:00,
2013-04-16 12:45:00,76.5,63.4,30.11,SSW,196,5.0,0.0,64,0.00,OVC,,0.00,WeatherDisplay:10.37,2013-04-16 16:45:00,
2013-04-16 12:50:00,77.2,64.1,30.11,SSW,199,7.1,10.4,64,0.00,OVC,,0.00,WeatherDisplay:10.37,2013-04-16 16:50:00,
2013-04-16 12:55:00,77.0,63.4,30.11,South,183,15.0,0.0,63,0.00,OVC,,0.00,WeatherDisplay:10.37,2013-04-16 16:55:00,
2013-04-16 13:00:00,76.6,63.5,30.11,SE,132,5.6,5.8,64,0.00,OVC,,0.00,WeatherDisplay:10.37,2013-04-16 17:00:00,
2013-04-16 13:05:00,76.8,63.7,30.11,SSE,164,7.0,0.0,64,0.00,OVC,,0.00,WeatherDisplay:10.37,2013-04-16 17:05:00,
2013-04-16 13:10:00,76.8,63.7,30.11,South,177,8.0,9.2,64,0.00,BKN,,0.00,WeatherDisplay:10.37,2013-04-16 17:10:00,
2013-04-16 13:15:00,76.8,63.7,30.10,West,267,10.3,10.4,64,0.00,BKN,,0.00,WeatherDisplay:10.37,2013-04-16 17:15:00,
2013-04-16 13:20:00,77.4,64.2,30.10,WNW,289,8.5,8.5,64,0.00,BKN,,0.00,WeatherDisplay:10.37,2013-04-16 17:20:00,
2013-04-16 13:25:00,77.9,64.7,30.10,SW,233,7.0,0.0,64,0.00,BKN,,0.00,WeatherDisplay:10.37,2013-04-16 17:25:00,
2013-04-16 13:30:00,78.3,64.6,30.11,South,177,8.9,10.4,63,0.00,BKN,,0.00,WeatherDisplay:10.37,2013-04-16 17:30:00,
2013-04-16 13:35:00,78.4,64.8,30.11,SSE,155,4.0,4.6,63,0.00,BKN,,0.00,WeatherDisplay:10.37,2013-04-16 17:35:00,
2013-04-16 13:40:00,78.4,64.8,30.11,WSW,245,7.8,8.1,63,0.00,BKN,,0.00,WeatherDisplay:10.37,2013-04-16 17:40:00,
2013-04-16 13:45:00,78.1,64.5,30.10,SSE,155,3.8,8.3,63,0.00,BKN,,0.00,WeatherDisplay:10.37,2013-04-16 17:45:00,
2013-04-16 13:50:00,78.3,64.6,30.10,West,267,9.0,13.8,63,0.00,BKN,,0.00,WeatherDisplay:10.37,2013-04-16 17:50:00,
2013-04-16 13:55:00,78.4,64.8,30.10,WSW,245,4.7,4.7,63,0.00,BKN,,0.00,WeatherDisplay:10.37,2013-04-16 17:55:00,
2013-04-16 14:00:00,78.4,64.8,30.10,SSW,199,10.4,13.2,63,0.00,BKN,,0.00,WeatherDisplay:10.37,2013-04-16 18:00:00,
2013-04-16 14:05:00,78.6,65.0,30.09,WSW,245,6.7,11.5,63,0.00,BKN,,0.00,WeatherDisplay:10.37,2013-04-16 18:05:00,
2013-04-16 14:10:00,78.6,64.5,30.09,SW,222,8.8,9.2,62,0.00,OVC,,0.00,WeatherDisplay:10.37,2013-04-16 18:10:00,
2013-04-16 14:15:00,79.2,65.5,30.09,SE,132,4.5,6.3,63,0.00,OVC,,0.00,WeatherDisplay:10.37,2013-04-16 18:15:00,
2013-04-16 14:20:00,79.7,65.5,30.09,SSW,199,5.6,6.3,62,0.00,OVC,,0.00,WeatherDisplay:10.37,2013-04-16 18:20:00,
2013-04-16 14:25:00,80.1,65.9,30.08,SSW,199,4.5,4.9,62,0.00,OVC,,0.00,WeatherDisplay:10.37,2013-04-16 18:25:00,
2013-04-16 14:30:00,80.1,65.4,30.08,South,177,11.4,11.5,61,0.00,OVC,,0.00,WeatherDisplay:10.37,2013-04-16 18:30:00,
2013-04-16 14:35:00,80.1,64.9,30.08,WSW,245,10.1,21.2,60,0.00,OVC,,0.00,WeatherDisplay:10.37,2013-04-16 18:35:00,
2013-04-16 14:40:00,82.2,66.5,30.08,SSW,199,4.7,4.7,59,0.00,OVC,,0.00,WeatherDisplay:10.37,2013-04-16 18:40:00,
2013-04-16 14:45:00,82.4,66.6,30.08,SSE,155,11.8,11.8,59,0.00,OVC,,0.00,WeatherDisplay:10.37,2013-04-16 18:45:00,
2013-04-16 14:50:00,82.4,66.6,30.08,SSE,155,11.8,11.8,59,0.00,OVC,,0.00,WeatherDisplay:10.37,2013-04-16 18:50:00,
2013-04-16 14:55:00,83.8,68.0,30.08,WNW,289,6.1,6.1,59,0.00,OVC,,0.00,WeatherDisplay:10.37,2013-04-16 18:55:00,
2013-04-16 15:00:00,84.0,68.1,30.08,SSW,199,6.2,6.9,59,0.00,OVC,,0.00,WeatherDisplay:10.37,2013-04-16 19:00:00,
2013-04-16 15:05:00,84.0,68.1,30.08,West,267,6.9,6.9,59,0.00,OVC,,0.00,WeatherDisplay:10.37,2013-04-16 19:05:00,
2013-04-16 15:10:00,84.0,66.6,30.08,SW,222,4.9,9.2,56,0.00,BKN,,0.00,WeatherDisplay:10.37,2013-04-16 19:10:00,
2013-04-16 15:15:00,82.6,65.3,30.08,SSE,155,10.5,10.5,56,0.00,BKN,,0.00,WeatherDisplay:10.37,2013-04-16 19:15:00,
2013-04-16 15:20:00,82.2,66.0,30.08,WSW,245,11.0,16.5,58,0.00,BKN,,0.00,WeatherDisplay:10.37,2013-04-16 19:20:00,
2013-04-16 15:25:00,82.8,66.5,30.07,SSW,199,2.2,9.2,58,0.00,BKN,,0.00,WeatherDisplay:10.37,2013-04-16 19:25:00,
2013-04-16 15:30:00,83.7,66.8,30.08,South,177,15.0,15.0,57,0.00,BKN,,0.00,WeatherDisplay:10.37,2013-04-16 19:30:00,
2013-04-16 15:35:00,83.8,66.5,30.07,SSW,199,4.5,8.1,56,0.00,BKN,,0.00,WeatherDisplay:10.37,2013-04-16 19:35:00,
2013-04-16 15:40:00,83.8,66.5,30.07,SE,132,3.6,4.6,56,0.00,BKN,,0.00,WeatherDisplay:10.37,2013-04-16 19:40:00,
2013-04-16 15:45:00,84.0,66.6,30.07,SSW,199,4.5,10.5,56,0.00,BKN,,0.00,WeatherDisplay:10.37,2013-04-16 19:45:00,
2013-04-16 15:50:00,84.6,66.6,30.06,South,177,6.4,6.9,55,0.00,BKN,,0.00,WeatherDisplay:10.37,2013-04-16 19:50:00,
2013-04-16 15:55:00,84.6,67.1,30.07,SSE,155,8.3,9.2,56,0.00,BKN,,0.00,WeatherDisplay:10.37,2013-04-16 19:55:00,
2013-04-16 16:00:00,84.7,66.8,30.06,WSW,245,14.7,15.0,55,0.00,BKN,,0.00,WeatherDisplay:10.37,2013-04-16 20:00:00,
2013-04-16 16:05:00,84.4,66.4,30.07,SSE,155,5.0,5.1,55,0.00,BKN,,0.00,WeatherDisplay:10.37,2013-04-16 20:05:00,
2013-04-16 16:10:00,84.4,66.4,30.07,South,177,5.8,6.9,55,0.00,SCT,,0.00,WeatherDisplay:10.37,2013-04-16 20:10:00,
2013-04-16 16:15:00,84.0,66.1,30.06,West,267,11.8,11.8,55,0.00,SCT,,0.00,WeatherDisplay:10.37,2013-04-16 20:15:00,
2013-04-16 16:20:00,84.0,66.1,30.06,SSW,199,13.4,13.8,55,0.00,SCT,,0.00,WeatherDisplay:10.37,2013-04-16 20:20:00,
2013-04-16 16:25:00,83.5,66.1,30.06,West,267,3.8,4.6,56,0.00,SCT,,0.00,WeatherDisplay:10.37,2013-04-16 20:25:00,
2013-04-16 16:30:00,84.0,66.6,30.06,SSW,199,4.8,11.8,56,0.00,SCT,,0.00,WeatherDisplay:10.37,2013-04-16 20:30:00,
2013-04-16 16:35:00,84.2,66.8,30.06,WSW,245,5.1,8.5,56,0.00,SCT,,0.00,WeatherDisplay:10.37,2013-04-16 20:35:00,
2013-04-16 16:40:00,84.2,66.8,30.06,WSW,245,5.1,8.1,56,0.00,SCT,,0.00,WeatherDisplay:10.37,2013-04-16 20:40:00,
2013-04-16 16:45:00,84.6,66.1,30.06,WSW,245,7.2,8.1,54,0.00,SCT,,0.00,WeatherDisplay:10.37,2013-04-16 20:45:00,
2013-04-16 16:50:00,84.6,66.6,30.07,WNW,289,2.8,5.8,55,0.00,SCT,,0.00,WeatherDisplay:10.37,2013-04-16 20:50:00,
2013-04-16 16:55:00,84.2,66.3,30.06,SW,222,9.4,9.4,55,0.00,SCT,,0.00,WeatherDisplay:10.37,2013-04-16 20:55:00,
2013-04-16 17:00:00,84.0,66.1,30.06,WSW,245,17.0,17.3,55,0.00,SCT,,0.00,WeatherDisplay:10.37,2013-04-16 21:00:00,
2013-04-16 17:05:00,83.5,65.6,30.07,South,177,7.7,11.5,55,0.00,SCT,,0.00,WeatherDisplay:10.37,2013-04-16 21:05:00,
2013-04-16 17:10:00,83.8,66.5,30.07,WSW,245,7.4,7.4,56,0.00,SCT,,0.00,WeatherDisplay:10.37,2013-04-16 21:10:00,
2013-04-16 17:15:00,84.4,66.4,30.07,South,177,8.7,9.2,55,0.00,SCT,,0.00,WeatherDisplay:10.37,2013-04-16 21:15:00,
2013-04-16 17:20:00,84.9,66.9,30.06,SW,222,9.9,10.4,55,0.00,SCT,,0.00,WeatherDisplay:10.37,2013-04-16 21:20:00,
2013-04-16 17:25:00,84.7,66.3,30.06,WSW,245,3.6,3.6,54,0.00,SCT,,0.00,WeatherDisplay:10.37,2013-04-16 21:25:00,
2013-04-16 17:30:00,84.4,66.4,30.06,WSW,245,2.9,3.5,55,0.00,SCT,,0.00,WeatherDisplay:10.37,2013-04-16 21:30:00,
2013-04-16 17:35:00,84.6,66.6,30.06,South,177,12.6,13.8,55,0.00,SCT,,0.00,WeatherDisplay:10.37,2013-04-16 21:35:00,
2013-04-16 17:40:00,84.7,66.3,30.06,ESE,109,5.4,5.8,54,0.00,SCT,,0.00,WeatherDisplay:10.37,2013-04-16 21:40:00,
2013-04-16 17:45:00,84.0,65.6,30.06,West,267,5.0,8.1,54,0.00,SCT,,0.00,WeatherDisplay:10.37,2013-04-16 21:45:00,
2013-04-16 17:50:00,83.8,65.9,30.06,SW,222,6.3,6.3,55,0.00,SCT,,0.00,WeatherDisplay:10.37,2013-04-16 21:50:00,
2013-04-16 17:55:00,83.5,65.6,30.06,SW,222,7.7,8.1,55,0.00,SCT,,0.00,WeatherDisplay:10.37,2013-04-16 21:55:00,
2013-04-16 18:00:00,83.3,65.4,30.06,West,267,2.8,13.0,55,0.00,SCT,,0.00,WeatherDisplay:10.37,2013-04-16 22:00:00,
2013-04-16 18:05:00,82.8,64.9,30.06,SSW,199,7.4,8.1,55,0.00,SCT,,0.00,WeatherDisplay:10.37,2013-04-16 22:05:00,
2013-04-16 18:10:00,82.2,65.0,30.06,SSW,199,4.2,4.6,56,0.00,BKN,,0.00,WeatherDisplay:10.37,2013-04-16 22:10:00,
2013-04-16 18:15:00,81.7,64.5,30.06,WSW,245,5.2,10.4,56,0.00,BKN,,0.00,WeatherDisplay:10.37,2013-04-16 22:15:00,
2013-04-16 18:20:00,81.3,64.1,30.07,WSW,245,3.5,3.6,56,0.00,BKN,,0.00,WeatherDisplay:10.37,2013-04-16 22:20:00,
2013-04-16 18:25:00,81.1,64.5,30.06,South,177,0.2,4.6,57,0.00,BKN,,0.00,WeatherDisplay:10.37,2013-04-16 22:25:00,
2013-04-16 18:30:00,81.0,64.3,30.06,WSW,245,4.9,5.8,57,0.00,BKN,,0.00,WeatherDisplay:10.37,2013-04-16 22:30:00,
2013-04-16 18:35:00,80.8,64.1,30.06,West,267,2.3,4.6,57,0.00,BKN,,0.00,WeatherDisplay:10.37,2013-04-16 22:35:00,
2013-04-16 18:40:00,80.4,64.3,30.06,WSW,245,0.0,3.5,58,0.00,BKN,,0.00,WeatherDisplay:10.37,2013-04-16 22:40:00,
2013-04-16 18:45:00,80.2,64.1,30.06,WSW,245,0.0,0.0,58,0.00,BKN,,0.00,WeatherDisplay:10.37,2013-04-16 22:45:00,
2013-04-16 18:50:00,79.9,64.3,30.06,WSW,245,1.8,2.3,59,0.00,BKN,,0.00,WeatherDisplay:10.37,2013-04-16 22:50:00,
2013-04-16 18:55:00,79.5,63.9,30.07,SW,222,4.5,4.6,59,0.00,BKN,,0.00,WeatherDisplay:10.37,2013-04-16 22:55:00,
2013-04-16 19:00:00,79.2,63.6,30.06,WSW,245,0.0,0.0,59,0.00,BKN,,0.00,WeatherDisplay:10.37,2013-04-16 23:00:00,
2013-04-16 19:05:00,78.6,63.6,30.06,SW,222,2.7,2.7,60,0.00,BKN,,0.00,WeatherDisplay:10.37,2013-04-16 23:05:00,
2013-04-16 19:10:00,78.4,63.4,30.06,SSW,199,1.8,2.3,60,0.00,BKN,,0.00,WeatherDisplay:10.37,2013-04-16 23:10:00,
2013-04-16 19:15:00,78.1,63.5,30.06,SSW,199,1.5,2.3,61,0.00,BKN,,0.00,WeatherDisplay:10.37,2013-04-16 23:15:00,
2013-04-16 19:20:00,77.7,63.2,30.06,SSE,155,1.3,1.3,61,0.00,BKN,,0.00,WeatherDisplay:10.37,2013-04-16 23:20:00,
2013-04-16 19:25:00,77.5,63.5,30.06,South,177,1.1,1.1,62,0.00,BKN,,0.00,WeatherDisplay:10.37,2013-04-16 23:25:00,
2013-04-16 19:30:00,77.2,63.2,30.05,South,177,1.5,2.3,62,0.00,BKN,,0.00,WeatherDisplay:10.37,2013-04-16 23:30:00,
2013-04-16 19:35:00,76.8,62.8,30.05,South,177,2.6,2.7,62,0.00,BKN,,0.00,WeatherDisplay:10.37,2013-04-16 23:35:00,
2013-04-16 19:40:00,76.6,63.1,30.05,SSE,155,1.3,1.3,63,0.00,BKN,,0.00,WeatherDisplay:10.37,2013-04-16 23:40:00,
2013-04-16 19:45:00,76.3,62.8,30.06,SSE,155,7.0,9.6,63,0.00,BKN,,0.00,WeatherDisplay:10.37,2013-04-16 23:45:00,
2013-04-16 19:50:00,75.9,62.9,30.06,SW,222,4.8,5.8,64,0.00,BKN,,0.00,WeatherDisplay:10.37,2013-04-16 23:50:00,
2013-04-16 19:55:00,75.9,62.9,30.06,SSE,155,3.8,8.1,64,0.00,BKN,,0.00,WeatherDisplay:10.37,2013-04-16 23:55:00,
2013-04-16 20:00:00,75.7,62.7,30.07,SSE,155,4.9,5.4,64,0.00,BKN,,0.00,WeatherDisplay:10.37,2013-04-17 00:00:00,
2013-04-16 20:05:00,75.6,63.0,30.07,WSW,245,2.4,2.4,65,0.00,BKN,,0.00,WeatherDisplay:10.37,2013-04-17 00:05:00,
2013-04-16 20:10:00,75.4,62.8,30.06,South,177,2.5,5.8,65,0.00,OVC,,0.00,WeatherDisplay:10.37,2013-04-17 00:10:00,
2013-04-16 20:15:00,75.2,62.6,30.06,South,177,2.7,5.8,65,0.00,OVC,,0.00,WeatherDisplay:10.37,2013-04-17 00:15:00,
2013-04-16 20:20:00,74.8,62.3,30.05,SSE,155,6.7,8.1,65,0.00,OVC,,0.00,WeatherDisplay:10.37,2013-04-17 00:20:00,
2013-04-16 20:25:00,74.8,62.7,30.05,SSE,155,2.7,5.8,66,0.00,OVC,,0.00,WeatherDisplay:10.37,2013-04-17 00:25:00,
2013-04-16 20:30:00,74.5,62.4,30.06,WSW,245,3.9,4.2,66,0.00,OVC,,0.00,WeatherDisplay:10.37,2013-04-17 00:30:00,
2013-04-16 20:35:00,74.5,62.4,30.06,SSW,199,3.1,3.5,66,0.00,OVC,,0.00,WeatherDisplay:10.37,2013-04-17 00:35:00,
2013-04-16 20:40:00,74.3,62.2,30.07,SW,222,1.6,2.3,66,0.00,OVC,,0.00,WeatherDisplay:10.37,2013-04-17 00:40:00,
2013-04-16 20:45:00,74.1,62.5,30.07,SW,222,4.2,6.0,67,0.00,OVC,,0.00,WeatherDisplay:10.37,2013-04-17 00:45:00,
2013-04-16 20:50:00,74.1,62.5,30.07,SW,222,5.8,6.0,67,0.00,OVC,,0.00,WeatherDisplay:10.37,2013-04-17 00:50:00,
2013-04-16 20:55:00,73.9,62.3,30.07,SW,222,1.8,2.3,67,0.00,OVC,,0.00,WeatherDisplay:10.37,2013-04-17 00:55:00,
2013-04-16 21:00:00,73.9,62.3,30.07,West,267,0.8,1.1,67,0.00,OVC,,0.00,WeatherDisplay:10.37,2013-04-17 01:00:00,
2013-04-16 21:05:00,73.8,62.1,30.07,West,267,1.3,1.3,67,0.00,OVC,,0.00,WeatherDisplay:10.37,2013-04-17 01:05:00,
2013-04-16 21:10:00,73.6,62.4,30.08,WSW,245,0.0,0.0,68,0.00,CLR,,0.00,WeatherDisplay:10.37,2013-04-17 01:10:00,
2013-04-16 21:15:00,73.4,62.2,30.08,NW,312,0.7,1.3,68,0.00,CLR,,0.00,WeatherDisplay:10.37,2013-04-17 01:15:00,
2013-04-16 21:20:00,73.2,62.4,30.08,WNW,289,0.8,1.1,69,0.00,CLR,,0.00,WeatherDisplay:10.37,2013-04-17 01:20:00,
2013-04-16 21:25:00,73.2,62.4,30.08,WNW,289,0.0,0.0,69,0.00,CLR,,0.00,WeatherDisplay:10.37,2013-04-17 01:25:00,
2013-04-16 21:30:00,73.0,62.3,30.09,WNW,289,0.0,0.0,69,0.00,CLR,,0.00,WeatherDisplay:10.37,2013-04-17 01:30:00,
2013-04-16 21:35:00,72.7,61.9,30.10,WNW,289,0.0,0.0,69,0.00,CLR,,0.00,WeatherDisplay:10.37,2013-04-17 01:35:00,
2013-04-16 21:40:00,72.3,62.0,30.10,West,267,0.0,0.0,70,0.00,CLR,,0.00,WeatherDisplay:10.37,2013-04-17 01:40:00,
2013-04-16 21:45:00,72.1,62.2,30.11,NE,42,0.0,0.0,71,0.00,CLR,,0.00,WeatherDisplay:10.37,2013-04-17 01:45:00,
2013-04-16 21:50:00,72.1,62.2,30.11,NE,42,0.0,0.0,71,0.00,CLR,,0.00,WeatherDisplay:10.37,2013-04-17 01:50:00,
2013-04-16 21:55:00,72.1,62.2,30.11,NE,42,0.0,0.0,71,0.00,CLR,,0.00,WeatherDisplay:10.37,2013-04-17 01:55:00,
2013-04-16 22:00:00,72.0,62.4,30.10,ENE,65,0.0,0.0,72,0.00,CLR,,0.00,WeatherDisplay:10.37,2013-04-17 02:00:00,
2013-04-16 22:05:00,71.8,62.3,30.11,NE,42,0.0,0.0,72,0.00,CLR,,0.00,WeatherDisplay:10.37,2013-04-17 02:05:00,
2013-04-16 22:10:00,71.8,62.3,30.11,NE,42,0.0,0.0,72,0.00,BKN,,0.00,WeatherDisplay:10.37,2013-04-17 02:10:00,
2013-04-16 22:15:00,71.8,62.7,30.11,NE,42,0.6,1.1,73,0.00,BKN,,0.00,WeatherDisplay:10.37,2013-04-17 02:15:00,
2013-04-16 22:20:00,71.8,62.3,30.11,NE,42,0.9,1.1,72,0.00,BKN,,0.00,WeatherDisplay:10.37,2013-04-17 02:20:00,
2013-04-16 22:25:00,71.4,61.9,30.11,NE,42,1.1,1.1,72,0.00,BKN,,0.00,WeatherDisplay:10.37,2013-04-17 02:25:00,
2013-04-16 22:30:00,70.9,60.6,30.11,ENE,65,1.1,3.6,70,0.00,BKN,,0.00,WeatherDisplay:10.37,2013-04-17 02:30:00,
2013-04-16 22:35:00,70.3,60.1,30.11,ENE,65,1.6,1.6,70,0.00,BKN,,0.00,WeatherDisplay:10.37,2013-04-17 02:35:00,
2013-04-16 22:40:00,70.0,59.7,30.11,ENE,65,3.4,3.5,70,0.00,BKN,,0.00,WeatherDisplay:10.37,2013-04-17 02:40:00,
2013-04-16 22:45:00,69.4,59.2,30.11,ESE,109,3.9,4.9,70,0.00,BKN,,0.00,WeatherDisplay:10.37,2013-04-17 02:45:00,
2013-04-16 22:50:00,68.9,58.7,30.11,ENE,65,3.1,3.5,70,0.00,BKN,,0.00,WeatherDisplay:10.37,2013-04-17 02:50:00,
2013-04-16 22:55:00,68.7,58.5,30.11,East,87,2.8,3.5,70,0.00,BKN,,0.00,WeatherDisplay:10.37,2013-04-17 02:55:00,
2013-04-16 23:00:00,68.5,58.4,30.11,SE,132,0.0,0.0,70,0.00,BKN,,0.00,WeatherDisplay:10.37,2013-04-17 03:00:00,
2013-04-16 23:05:00,68.5,58.4,30.11,East,87,3.1,3.5,70,0.00,BKN,,0.00,WeatherDisplay:10.37,2013-04-17 03:05:00,
2013-04-16 23:10:00,68.2,58.0,30.11,East,87,1.6,3.5,70,0.00,BKN,,0.00,WeatherDisplay:10.37,2013-04-17 03:10:00,
2013-04-16 23:15:00,68.0,58.2,30.11,ESE,109,0.9,2.3,71,0.00,BKN,,0.00,WeatherDisplay:10.37,2013-04-17 03:15:00,
2013-04-16 23:20:00,67.8,58.1,30.11,East,97,1.0,0.0,71,0.00,BKN,,0.00,WeatherDisplay:10.37,2013-04-17 03:20:00,
2013-04-16 23:25:00,67.8,58.1,30.11,NE,42,0.0,1.3,71,0.00,BKN,,0.00,WeatherDisplay:10.37,2013-04-17 03:25:00,
2013-04-16 23:30:00,67.6,58.3,30.11,ENE,65,0.7,1.1,72,0.00,BKN,,0.00,WeatherDisplay:10.37,2013-04-17 03:30:00,
2013-04-16 23:35:00,67.3,57.9,30.11,ENE,65,3.4,3.5,72,0.00,BKN,,0.00,WeatherDisplay:10.37,2013-04-17 03:35:00,
2013-04-16 23:40:00,67.1,57.8,30.10,ESE,109,0.0,0.0,72,0.00,BKN,,0.00,WeatherDisplay:10.37,2013-04-17 03:40:00,
2013-04-16 23:45:00,66.9,57.6,30.11,ENE,65,1.9,3.5,72,0.00,BKN,,0.00,WeatherDisplay:10.37,2013-04-17 03:45:00,
2013-04-16 23:50:00,66.9,57.6,30.10,NE,42,2.0,2.3,72,0.00,BKN,,0.00,WeatherDisplay:10.37,2013-04-17 03:50:00,
2013-04-16 23:55:00,66.7,57.8,30.10,East,87,3.8,3.8,73,0.00,BKN,,0.00,WeatherDisplay:10.37,2013-04-17 03:55:00,